WP4MXZ San Sebastian PR US current weather conditions

sailwx.info

Wind from 185

Air temperature 22.8° C
Dewpoint 22.8° C

Last reported at 2014-Sep-20 04:33 UTC.
Time now 2014-Sep-20 06:01 UTC

Location: N 18°20' W 067°00'.
View on Google Maps.

See reports from other nearby stations

  
Tides and Currents Weather Stations Pressure Air Temp Water Temp Dewpoint Dewpoint Depression Visibility Wind Speed Wind Dir Waves Ship Positions
date/time (UTC)wind fromknots sea level pressurealtimeterstation pressurevisibilityair tempwater tempwave heightnotes
2014-Sep-20 04:33 185 22.8
2014-Sep-20 04:03 185 22.8
2014-Sep-20 03:33 185 22.8
2014-Sep-20 03:03 185 22.8
2014-Sep-20 02:33 185 23.3
2014-Sep-20 02:03 185 23.3
2014-Sep-20 01:33 185 23.3
2014-Sep-20 01:03 185 23.9
2014-Sep-20 00:33 146 23.9
2014-Sep-20 00:03 146 24.4
2014-Sep-19 23:33 146 24.4
2014-Sep-19 23:04 146 25.0
2014-Sep-19 22:33 146 25.6
2014-Sep-19 22:04 146 25.6
2014-Sep-19 21:33 232 26.1
2014-Sep-19 21:03 139 25.0
2014-Sep-19 20:33 289 26.1
2014-Sep-19 20:03 274 1 27.8
2014-Sep-19 19:33 158 31.1
2014-Sep-19 19:04 153 5 31.7
2014-Sep-19 18:34 138 1 32.2
2014-Sep-19 18:03 119 4 32.2
2014-Sep-19 17:34 073 4 32.2
2014-Sep-19 17:03 112 3 33.3
2014-Sep-19 16:33 177 7 33.9
2014-Sep-19 16:03 168 3 33.3
2014-Sep-19 15:33 178 4 32.2
2014-Sep-19 15:03 188 4 31.7
2014-Sep-19 14:33 189 3 31.1
2014-Sep-19 14:03 025 30.0
2014-Sep-19 13:33 130 28.9
2014-Sep-19 13:03 111 27.2
2014-Sep-19 12:33 150 26.1
2014-Sep-19 12:04 215 24.4
2014-Sep-19 11:33 086 23.3
2014-Sep-19 11:03 211 23.9
2014-Sep-19 10:33 211 23.9
2014-Sep-19 10:03 194 24.4
2014-Sep-19 09:33 203 24.4
2014-Sep-19 09:03 203 24.4
2014-Sep-19 08:33 190 1 gusting 4 23.9
2014-Sep-19 08:04 110 23.9
2014-Sep-19 07:33 118 23.9
2014-Sep-19 07:04 117 23.9
2014-Sep-19 06:33 117 23.9
2014-Sep-19 06:04 009 23.9
2014-Sep-19 05:33 328 23.9
2014-Sep-19 05:03 234 23.9
2014-Sep-19 04:33 228 23.9
2014-Sep-19 04:03 233 23.9
2014-Sep-19 03:33 233 23.9
2014-Sep-19 03:03 219 23.9
2014-Sep-19 02:33 219 23.9
2014-Sep-19 02:04 074 23.3
2014-Sep-19 01:34 090 23.3
2014-Sep-19 01:04 037 23.3
2014-Sep-19 00:34 037 23.3
2014-Sep-19 00:04 037 22.8
2014-Sep-18 23:33 081 22.8
2014-Sep-18 23:04 079 1 gusting 3 22.2
2014-Sep-18 22:33 247 22.8
2014-Sep-18 22:03 133 3 gusting 6 23.3
2014-Sep-18 21:33 189 0 gusting 7 27.2
2014-Sep-18 21:03 157 3 gusting 7 28.3
2014-Sep-18 20:34 033 3 gusting 6 28.9
2014-Sep-18 20:04 089 3 gusting 7 30.6
2014-Sep-18 19:33 313 2 gusting 6 32.2
2014-Sep-18 19:03 331 1 gusting 5 32.8
2014-Sep-18 18:34 277 1 gusting 6 33.9
2014-Sep-18 18:03 33.9
2014-Sep-18 17:33 336 34.4
2014-Sep-18 17:03 317 1 gusting 4 33.9
2014-Sep-18 16:34 066 33.9
2014-Sep-18 16:03 298 2 gusting 4 32.8
2014-Sep-18 15:33 207 0 gusting 4 32.2
2014-Sep-18 15:03 121 3 gusting 6 31.7
2014-Sep-18 14:34 133 0 gusting 6 31.1
2014-Sep-18 14:03 198 4 gusting 6 30.6
2014-Sep-18 13:33 210 1 gusting 6 30.0
2014-Sep-18 13:03 166 0 gusting 5 28.9
2014-Sep-18 12:33 244 27.2
2014-Sep-18 12:03 244 26.7
2014-Sep-18 11:34 244 24.4
2014-Sep-18 11:03 246 22.8
2014-Sep-18 10:33 246 22.2
2014-Sep-18 10:03 246 22.2
2014-Sep-18 09:33 246 22.2
2014-Sep-18 09:03 246 22.8
2014-Sep-18 08:34 246 22.8
2014-Sep-18 08:03 246 23.3
2014-Sep-18 07:33 246 23.3
2014-Sep-18 07:04 246 23.3
2014-Sep-18 06:33 246 23.3
2014-Sep-18 06:03 246 23.3